sat.trackr.live / text

‹ back to catalog

STARLINK-34642

NORAD 64910 · 2025-157G

PAYLOAD ACTIVE UNKNOWN

§ Identity

Operator
Country
US
Launch date
2025-07-26
Launch site
AFETR
Launch vehicle
Mass (kg)
RCS (m²)

Purposes: comms

External: N2YO · Heavens-Above · Gunter

§ Orbital elements

Epoch: 2026-05-24T20:38:45.603456Z

Period
94.01 min
Inclination
53.1583°
Eccentricity
0.0000457
Mean motion
15.31701210 rev/d
Perigee alt
470.4 km
Apogee alt
471.0 km
Semi-major
6,848.9 km
B*
6.8433e-4
RAAN
351.3120°
Arg perigee
348.6610°
Mean anomaly
11.4381°
Rev number
4,779

§ Raw data

STARLINK-346421 64910U 25157G   26144.86025004  .00020931  00000+0  68433-3 0  99932 64910  53.1583 351.3120 0000457 348.6610  11.4381 15.31701210 47792

JSON: /api/v1/satellites/64910 · /tle

For live sub-satellite position, see the globe view (requires WebGL).

§ Visibility from observer

Set your observer location to see the next 7 days of passes ≥ 10°. The values pass through the URL so the page stays shareable.

No JS? Fill the form by hand. The geolocation button needs JavaScript.